Portada
METAR-TAF:

METAR-TAF

Aeroports :

Greenville, Maine, Estats Units d'Amèrica

latitud: 45-28N, longitud: 069-35W, altitud: 427 m

Observació

L'informe es va fer fa 47 minuts, a les 23:56 UTC
Vent 7 kt del Sud-Est
Temperatura 7°C
Humitat 93%
Pressió 1019 hPa

METAR: KGNR 212356Z AUTO 14007KT 07/06 A3008 RMK AO1 SLP200 T00670056 10067 20044 56009

Hora: 20:43 (00:43 UTC)


TAF: manca

Observacions i pronòstics meteorològics de més de 4000 aeroports (METAR i TAF).

Les estacions disponibles són els punts grocs i vermells al mapa.

Posi el ratolí al punt desitjat per veure el nom de l'estació.

Feu clic per veure les observacions i els pronòstics meteorològics.

Per canviar el mapa: feu clic els botons verds amb una creu de color negre per apropar; al botó verd amb un guió per allunyar la imatge; o en les fletxes verdes per a mapes adjacents.


METAR-TAF: